Location: Binningen
(47.7924°N, 8.7261°E)
Time: 23:06:01
(UTC+00:00)

Meteor 1-15 Rocket - Pass Details

Date: 17 May 2021
Orbit: 840 x 907 km, 81.2° (Epoch: 24 June)

Event Time Altitude Azimuth Distance (km) Brightness Sun altitude
Rises 23:15:10 0° 346° (NNW) 3,457 8.8 -22.6°
Reaches altitude 10° 23:17:36 10° 343° (NNW) 2,526 7.7 -22.7°
Maximum altitude 23:23:17 66° 263° (W) 961 4.4 -22.7°
Enters shadow 23:24:49 47° 203° (SSW) 1,153 4.5 -22.7°
